SAS19B ESNU-ESSA

Flight info

Callsign SAS19B
Flight time 0h 48m
Altitude 36000
Route DEDIT DCT GALPI DCT BODRI DCT SIPRI N5 VACRA
Aircraft A319/M-SDE3FGHIRWY/LB1

Departure

Time 2026-04-15 20:55
Airport Umeå Airport (ESNU)

Arrival

Time 2026-04-15 21:44
Airport Stockholm-Arlanda Airport (ESSA)
Time Latitude Longitude Altitude Speed Heading
2026-04-15 20:43 63.79247 20.28913 27 ft 0 kts 48°
2026-04-15 20:48 63.79238 20.28890 27 ft 3 kts 43°
2026-04-15 20:48 63.79223 20.28862 27 ft 3 kts 27°
2026-04-15 20:49 63.79205 20.28848 27 ft 3 kts 355°
2026-04-15 20:49 63.79192 20.28857 27 ft 1 kts 312°
2026-04-15 20:49 63.79188 20.28867 27 ft 0 kts 311°
2026-04-15 20:50 63.79192 20.28857 27 ft 3 kts 311°
2026-04-15 20:51 63.79214 20.28800 27 ft 7 kts 311°
2026-04-15 20:51 63.79250 20.28700 27 ft 9 kts 294°
2026-04-15 20:51 63.79218 20.28561 27 ft 12 kts 229°
2026-04-15 20:51 63.79166 20.28395 26 ft 14 kts 262°
2026-04-15 20:52 63.79221 20.28214 28 ft 16 kts 317°
2026-04-15 20:52 63.79312 20.28024 31 ft 19 kts 317°
2026-04-15 20:52 63.79425 20.27798 32 ft 24 kts 319°
2026-04-15 20:52 63.79570 20.27510 30 ft 31 kts 319°
2026-04-15 20:53 63.79728 20.27162 33 ft 28 kts 306°
2026-04-15 20:53 63.79816 20.26957 33 ft 11 kts 317°
2026-04-15 20:53 63.79822 20.26982 34 ft 4 kts 115°
2026-04-15 20:53 63.79816 20.26997 34 ft 0 kts 134°
2026-04-15 20:54 63.79736 20.27165 34 ft 48 kts 138°
2026-04-15 20:54 63.79319 20.28014 31 ft 112 kts 138°
2026-04-15 20:55 63.78603 20.29439 124 ft 151 kts 139°
2026-04-15 20:55 63.77859 20.30992 816 ft 142 kts 137°
2026-04-15 20:55 63.77152 20.32542 1366 ft 144 kts 138°
2026-04-15 20:55 63.76339 20.34111 1677 ft 165 kts 146°
2026-04-15 20:56 63.75173 20.34721 1922 ft 187 kts 188°
2026-04-15 20:56 63.73837 20.33959 2210 ft 213 kts 196°
2026-04-15 20:56 63.72329 20.32988 2661 ft 238 kts 196°
2026-04-15 20:56 63.70656 20.31905 3252 ft 259 kts 196°
2026-04-15 20:57 63.68895 20.30769 4189 ft 266 kts 196°
2026-04-15 20:57 63.67098 20.29620 5165 ft 270 kts 196°
2026-04-15 20:57 63.65267 20.28456 6106 ft 275 kts 196°
2026-04-15 20:57 63.63403 20.27275 7008 ft 280 kts 196°
2026-04-15 20:58 63.61514 20.26086 7870 ft 284 kts 196°
2026-04-15 20:58 63.59617 20.24894 8687 ft 288 kts 196°
2026-04-15 20:58 63.57674 20.23673 9474 ft 292 kts 196°
2026-04-15 20:58 63.55698 20.22436 10211 ft 298 kts 195°
2026-04-15 20:59 63.53617 20.21140 10447 ft 320 kts 195°
2026-04-15 20:59 63.51396 20.19754 10619 ft 341 kts 195°
2026-04-15 20:59 63.49079 20.18309 11090 ft 349 kts 195°
2026-04-15 20:59 63.46720 20.16841 11657 ft 353 kts 195°
2026-04-15 21:00 63.45148 20.15866 12028 ft 356 kts 195°
2026-04-15 21:00 63.42751 20.14381 12568 ft 359 kts 195°
2026-04-15 21:00 63.39540 20.12393 13243 ft 363 kts 195°
2026-04-15 21:00 63.37093 20.10881 13724 ft 367 kts 195°
2026-04-15 21:01 63.34624 20.09357 14185 ft 370 kts 195°
2026-04-15 21:01 63.32938 20.08318 14487 ft 372 kts 195°
2026-04-15 21:01 63.30469 20.06798 14913 ft 374 kts 195°
2026-04-15 21:01 63.27950 20.05256 15331 ft 377 kts 195°
2026-04-15 21:02 63.25409 20.03706 15735 ft 380 kts 195°
2026-04-15 21:02 63.22848 20.02144 16123 ft 383 kts 195°
2026-04-15 21:02 63.20274 20.00570 16523 ft 385 kts 195°
2026-04-15 21:02 63.17678 19.98989 16875 ft 388 kts 195°
2026-04-15 21:03 63.15062 19.97402 17225 ft 390 kts 195°
2026-04-15 21:03 63.12429 19.95806 17565 ft 393 kts 195°
2026-04-15 21:03 63.09782 19.94202 17900 ft 395 kts 195°
2026-04-15 21:03 63.07149 19.92610 18230 ft 397 kts 195°
2026-04-15 21:04 63.04484 19.91002 18563 ft 400 kts 195°
2026-04-15 21:04 63.01791 19.89379 18895 ft 402 kts 195°
2026-04-15 21:04 62.99093 19.87756 19219 ft 404 kts 195°
2026-04-15 21:04 62.96363 19.86119 19526 ft 407 kts 195°
2026-04-15 21:05 62.93615 19.84474 19817 ft 409 kts 195°
2026-04-15 21:05 62.90877 19.82839 20122 ft 412 kts 195°
2026-04-15 21:05 62.88135 19.81206 21073 ft 403 kts 195°
2026-04-15 21:05 62.85432 19.79596 21854 ft 401 kts 195°
2026-04-15 21:06 62.82739 19.77994 22427 ft 402 kts 195°
2026-04-15 21:06 62.80053 19.76401 22936 ft 405 kts 195°
2026-04-15 21:06 62.77319 19.74783 23427 ft 408 kts 195°
2026-04-15 21:06 62.74562 19.73154 23905 ft 411 kts 195°
2026-04-15 21:07 62.71790 19.71522 24370 ft 414 kts 195°
2026-04-15 21:07 62.68993 19.69879 24822 ft 417 kts 195°
2026-04-15 21:07 62.66178 19.68224 25263 ft 420 kts 195°
2026-04-15 21:07 62.63374 19.66582 25685 ft 422 kts 195°
2026-04-15 21:08 62.60520 19.64919 26108 ft 425 kts 195°
2026-04-15 21:08 62.57650 19.63251 26524 ft 428 kts 195°
2026-04-15 21:08 62.54756 19.61567 26933 ft 430 kts 195°
2026-04-15 21:08 62.51855 19.59880 27331 ft 433 kts 195°
2026-04-15 21:09 62.48932 19.58179 27718 ft 436 kts 195°
2026-04-15 21:09 62.46026 19.56493 28091 ft 438 kts 195°
2026-04-15 21:09 62.43074 19.54785 28459 ft 441 kts 195°
2026-04-15 21:09 62.40100 19.53067 28818 ft 443 kts 195°
2026-04-15 21:10 62.37099 19.51339 29166 ft 446 kts 195°
2026-04-15 21:10 62.34088 19.49612 29502 ft 448 kts 195°
2026-04-15 21:10 62.31064 19.47881 29821 ft 450 kts 195°
2026-04-15 21:10 62.28028 19.46145 30149 ft 453 kts 195°
2026-04-15 21:11 62.24977 19.44405 30460 ft 455 kts 195°
2026-04-15 21:11 62.21912 19.42658 30761 ft 457 kts 195°
2026-04-15 21:11 62.18866 19.40923 31050 ft 459 kts 195°
2026-04-15 21:11 62.15768 19.39165 31388 ft 459 kts 195°
2026-04-15 21:12 62.12670 19.37415 31803 ft 458 kts 195°
2026-04-15 21:12 62.09588 19.35682 32215 ft 457 kts 195°
2026-04-15 21:12 62.06506 19.33955 32608 ft 457 kts 195°
2026-04-15 21:12 62.03441 19.32238 33003 ft 456 kts 195°
2026-04-15 21:13 62.00377 19.30517 33396 ft 455 kts 195°
2026-04-15 21:13 61.97320 19.28800 33786 ft 454 kts 195°
2026-04-15 21:13 61.94296 19.27108 33972 ft 454 kts 195°
2026-04-15 21:14 61.88247 19.23750 34009 ft 446 kts 195°
2026-04-15 21:14 61.82237 19.20410 34009 ft 445 kts 195°
2026-04-15 21:15 61.76266 19.17107 34009 ft 445 kts 195°
2026-04-15 21:15 61.70266 19.13796 34009 ft 445 kts 195°
2026-04-15 21:16 61.64272 19.10495 34009 ft 445 kts 195°
2026-04-15 21:16 61.58277 19.07213 33803 ft 445 kts 195°
2026-04-15 21:16 61.55270 19.05581 33565 ft 445 kts 195°
2026-04-15 21:17 61.52280 19.03968 33734 ft 444 kts 195°
2026-04-15 21:17 61.49280 19.02389 33881 ft 447 kts 194°
2026-04-15 21:17 61.46247 19.00917 33619 ft 446 kts 193°
2026-04-15 21:17 61.43217 18.99568 33368 ft 446 kts 192°
2026-04-15 21:18 61.40207 18.98292 33122 ft 446 kts 192°
2026-04-15 21:18 61.37156 18.97012 32872 ft 447 kts 192°
2026-04-15 21:18 61.34102 18.95720 32619 ft 447 kts 192°
2026-04-15 21:18 61.31048 18.94404 32372 ft 448 kts 192°
2026-04-15 21:19 61.28004 18.93068 32122 ft 448 kts 192°
2026-04-15 21:19 61.24949 18.91719 31872 ft 449 kts 192°
2026-04-15 21:19 61.21891 18.90369 31622 ft 449 kts 192°
2026-04-15 21:19 61.18832 18.89022 31372 ft 450 kts 192°
2026-04-15 21:20 61.15757 18.87672 31121 ft 450 kts 192°
2026-04-15 21:20 61.12689 18.86329 30871 ft 451 kts 192°
2026-04-15 21:20 61.09658 18.85010 30625 ft 451 kts 192°
2026-04-15 21:20 61.06583 18.83676 30386 ft 450 kts 192°
2026-04-15 21:21 61.03520 18.82348 30124 ft 449 kts 192°
2026-04-15 21:21 61.00469 18.81029 29874 ft 447 kts 192°
2026-04-15 21:21 60.97432 18.79721 29623 ft 445 kts 192°
2026-04-15 21:21 60.94408 18.78423 29372 ft 443 kts 192°
2026-04-15 21:22 60.91388 18.77129 29123 ft 442 kts 192°
2026-04-15 21:22 60.88380 18.75842 28872 ft 440 kts 192°
2026-04-15 21:22 60.85385 18.74563 28622 ft 438 kts 192°
2026-04-15 21:22 60.82401 18.73290 28371 ft 437 kts 192°
2026-04-15 21:23 60.79432 18.72025 28121 ft 435 kts 192°
2026-04-15 21:23 60.76477 18.70766 27871 ft 433 kts 192°
2026-04-15 21:23 60.73531 18.69510 27621 ft 431 kts 192°
2026-04-15 21:23 60.70626 18.68273 27370 ft 430 kts 192°
2026-04-15 21:24 60.67696 18.67031 27123 ft 428 kts 192°
2026-04-15 21:24 60.64780 18.65802 26872 ft 426 kts 192°
2026-04-15 21:24 60.61868 18.64580 26621 ft 425 kts 192°
2026-04-15 21:24 60.59011 18.63384 26370 ft 422 kts 192°
2026-04-15 21:25 60.56146 18.62188 25859 ft 417 kts 192°
2026-04-15 21:25 60.53311 18.61008 25284 ft 414 kts 192°
2026-04-15 21:25 60.50497 18.59831 24720 ft 410 kts 192°
2026-04-15 21:25 60.47712 18.58658 24173 ft 406 kts 192°
2026-04-15 21:26 60.44977 18.57509 23640 ft 403 kts 192°
2026-04-15 21:26 60.42241 18.56367 23129 ft 399 kts 192°
2026-04-15 21:26 60.39534 18.55242 22623 ft 395 kts 192°
2026-04-15 21:26 60.36847 18.54130 22135 ft 392 kts 192°
2026-04-15 21:27 60.34184 18.53025 21654 ft 388 kts 192°
2026-04-15 21:27 60.31548 18.51932 21174 ft 385 kts 192°
2026-04-15 21:27 60.28942 18.50856 20702 ft 380 kts 192°
2026-04-15 21:27 60.26357 18.49793 20217 ft 376 kts 192°
2026-04-15 21:28 60.23807 18.48747 19728 ft 372 kts 192°
2026-04-15 21:28 60.21277 18.47709 19235 ft 368 kts 192°
2026-04-15 21:28 60.18779 18.46685 18742 ft 365 kts 192°
2026-04-15 21:28 60.16336 18.45679 18242 ft 361 kts 192°
2026-04-15 21:29 60.13883 18.44674 17735 ft 358 kts 192°
2026-04-15 21:29 60.11446 18.43681 17221 ft 355 kts 192°
2026-04-15 21:29 60.09028 18.42700 16705 ft 352 kts 192°
2026-04-15 21:29 60.06635 18.41732 16183 ft 350 kts 192°
2026-04-15 21:30 60.04258 18.40769 15684 ft 347 kts 192°
2026-04-15 21:30 60.01892 18.39809 15171 ft 344 kts 192°
2026-04-15 21:30 59.99547 18.38856 14662 ft 342 kts 192°
2026-04-15 21:30 59.97228 18.37918 14156 ft 339 kts 192°
2026-04-15 21:31 59.92656 18.36075 13152 ft 334 kts 192°
2026-04-15 21:31 59.90387 18.35161 12509 ft 336 kts 192°
2026-04-15 21:32 59.85790 18.33305 11370 ft 334 kts 192°
2026-04-15 21:32 59.83518 18.32390 10867 ft 330 kts 192°
2026-04-15 21:32 59.81301 18.31503 10376 ft 327 kts 192°
2026-04-15 21:32 59.79097 18.30625 10166 ft 316 kts 192°
2026-04-15 21:33 59.76986 18.29784 10033 ft 303 kts 192°
2026-04-15 21:33 59.74953 18.28976 9875 ft 292 kts 192°
2026-04-15 21:33 59.72975 18.28190 9746 ft 288 kts 192°
2026-04-15 21:33 59.71014 18.27407 9742 ft 287 kts 192°
2026-04-15 21:34 59.69077 18.26633 9745 ft 287 kts 192°
2026-04-15 21:34 59.67120 18.25852 9745 ft 287 kts 192°
2026-04-15 21:34 59.65171 18.25079 9704 ft 287 kts 192°
2026-04-15 21:34 59.63216 18.24256 9292 ft 289 kts 195°
2026-04-15 21:35 59.61261 18.23178 8813 ft 291 kts 197°
2026-04-15 21:35 59.59308 18.22062 8337 ft 293 kts 197°
2026-04-15 21:35 59.57341 18.20936 7859 ft 294 kts 197°
2026-04-15 21:35 59.55369 18.19807 7383 ft 295 kts 197°
2026-04-15 21:36 59.53400 18.18679 6896 ft 291 kts 197°
2026-04-15 21:36 59.51501 18.17595 6423 ft 283 kts 197°
2026-04-15 21:36 59.49634 18.16532 5950 ft 276 kts 197°
2026-04-15 21:36 59.47808 18.15494 5473 ft 270 kts 197°
2026-04-15 21:37 59.46012 18.14474 4997 ft 266 kts 197°
2026-04-15 21:37 59.44373 18.12944 4521 ft 259 kts 215°
2026-04-15 21:37 59.42968 18.10763 4043 ft 255 kts 221°
2026-04-15 21:37 59.41923 18.08066 3744 ft 245 kts 250°
2026-04-15 21:38 59.41762 18.04822 3690 ft 239 kts 281°
2026-04-15 21:38 59.42318 18.01752 3642 ft 239 kts 294°
2026-04-15 21:38 59.43028 17.98803 3591 ft 239 kts 296°
2026-04-15 21:38 59.43736 17.95935 3539 ft 225 kts 296°
2026-04-15 21:39 59.44410 17.93216 3482 ft 219 kts 296°
2026-04-15 21:39 59.45070 17.90574 3436 ft 218 kts 297°
2026-04-15 21:39 59.45982 17.88243 3397 ft 212 kts 317°
2026-04-15 21:39 59.47207 17.86718 3266 ft 205 kts 337°
2026-04-15 21:40 59.48570 17.86112 3106 ft 197 kts 355°
2026-04-15 21:40 59.49891 17.86353 2841 ft 186 kts 10°
2026-04-15 21:40 59.51148 17.86803 2603 ft 180 kts
2026-04-15 21:40 59.52359 17.87234 2370 ft 178 kts
2026-04-15 21:41 59.53575 17.87669 2136 ft 177 kts
2026-04-15 21:41 59.54783 17.88102 1903 ft 176 kts
2026-04-15 21:41 59.55984 17.88534 1672 ft 175 kts
2026-04-15 21:41 59.57180 17.88964 1437 ft 174 kts
2026-04-15 21:42 59.58365 17.89390 1208 ft 168 kts
2026-04-15 21:42 59.59442 17.89779 997 ft 147 kts
2026-04-15 21:42 59.60404 17.90143 795 ft 140 kts 11°
2026-04-15 21:42 59.61351 17.90479 593 ft 136 kts
2026-04-15 21:43 59.62284 17.90802 452 ft 136 kts
2026-04-15 21:43 59.63215 17.91130 251 ft 135 kts
2026-04-15 21:43 59.64122 17.91467 107 ft 123 kts 11°
2026-04-15 21:43 59.64810 17.91714 108 ft 77 kts 10°
2026-04-15 21:44 59.65158 17.91884 104 ft 32 kts 27°
2026-04-15 21:44 59.65302 17.92103 104 ft 25 kts 42°
2026-04-15 21:44 59.65423 17.92332 105 ft 21 kts 45°
2026-04-15 21:44 59.65498 17.92535 106 ft 15 kts 92°
2026-04-15 21:45 59.65432 17.92632 110 ft 10 kts 150°
2026-04-15 21:45 59.65379 17.92693 112 ft 9 kts 149°
2026-04-15 21:45 59.65345 17.92785 112 ft 9 kts 104°
2026-04-15 21:45 59.65335 17.92885 112 ft 3 kts 100°
2026-04-15 21:46 59.65333 17.92904 112 ft 0 kts 100°